Date String (YYYY-MM-DD hh:mm:ss) UTC,Instrument flags,Ambient pressure (hPa),Sample flow (lpm),Bypass flow (lpm),Sample temperature (°C),Ambient temperature (°C),ASC tube jacket temperature (°C),LED temperature (°C),Box temperature (°C),Sample RH (%),Span deviation,Mass concentration (μg/m³),Mass concentration (μg/m³),Mass concentration (μg/m³)
DateTimeUTC,F1_M11,P_M11,Q1_M11,Q2_M11,T1_M11,T2_M11,T3_M11,T4_M11,T5_M11,U1_M11,ZSPAN_M11,X0_M11,X2_M11,X1_M11
2022-07-25 17:00:00,,0829.3,4.99,0.00,33.4,28.1,00.0,40.6,32.9,34.1,-000.2,0016.50,0009.88,0008.91
2022-07-25 17:01:00,,0829.2,5.00,0.00,33.4,28.3,00.0,40.6,32.8,34.0,0000.1,0016.62,0009.92,0008.97
2022-07-25 17:02:00,,0829.1,4.99,0.00,33.4,28.5,00.0,40.7,32.8,34.5,0000.1,0016.33,0009.93,0008.98
2022-07-25 17:03:00,,0829.2,5.00,0.00,33.4,28.6,00.0,40.7,32.9,34.8,0000.3,0016.02,0009.95,0008.97
2022-07-25 17:04:00,,0829.3,5.00,0.00,33.4,28.3,00.0,40.7,32.9,34.6,0000.1,0016.68,0010.01,0009.00
2022-07-25 17:05:00,,0829.4,5.00,0.00,33.4,27.7,00.0,40.7,32.8,33.8,-000.3,0016.92,0010.02,0009.04
2022-07-25 17:06:00,,0829.2,5.00,0.00,33.3,27.5,00.0,40.7,32.6,33.5,-000.1,0016.27,0010.04,0009.06
2022-07-25 17:07:00,,0828.8,5.00,0.00,33.1,27.5,00.0,40.7,32.5,34.0,-000.2,0016.10,0010.03,0009.09
2022-07-25 17:08:00,,0828.8,5.00,0.00,33.0,27.7,00.0,40.7,32.5,35.4,-000.3,0016.31,0010.04,0009.12
2022-07-25 17:09:00,,0828.7,5.01,0.00,33.0,27.8,00.0,40.7,32.6,35.2,-000.0,0016.14,0010.08,0009.14
2022-07-25 17:10:00,,0828.8,5.00,0.00,33.2,28.0,00.0,40.7,32.8,35.0,0000.0,0016.09,0010.17,0009.20
2022-07-25 17:11:00,,0828.7,4.99,0.00,33.4,28.2,00.0,40.7,32.9,35.3,0000.0,0016.09,0010.21,0009.23
2022-07-25 17:12:00,,0828.7,5.00,0.00,33.6,28.4,00.0,40.7,33.0,33.8,-000.2,0016.16,0010.22,0009.20
2022-07-25 17:13:00,,0828.7,5.00,0.00,33.7,28.5,00.0,40.8,33.0,34.0,-000.3,0016.02,0010.16,0009.15
2022-07-25 17:14:00,,0828.9,5.00,0.00,33.8,28.6,00.0,40.8,33.0,33.8,-000.7,0015.64,0010.11,0009.14
2022-07-25 17:15:00,,0828.7,5.01,0.00,33.7,28.1,00.0,40.8,32.9,32.1,-000.6,0014.76,0010.00,0009.07
2022-07-25 17:16:00,,0829.0,5.01,0.00,33.7,27.6,00.0,40.8,32.8,32.7,-000.4,0014.20,0009.92,0009.00
2022-07-25 17:17:00,,0829.1,4.98,0.00,33.6,27.5,00.0,40.9,32.7,34.0,-000.3,0014.32,0009.89,0008.96
2022-07-25 17:18:00,,0828.9,5.00,0.00,33.4,27.6,00.0,40.9,32.6,34.7,-000.2,0014.79,0009.90,0008.94
2022-07-25 17:19:00,,0828.9,5.00,0.00,33.2,27.7,00.0,40.9,32.6,34.9,0000.2,0014.53,0009.90,0008.93
2022-07-25 17:20:00,,0828.9,5.00,0.00,33.2,27.9,00.0,40.9,32.7,35.1,-000.1,0014.83,0009.94,0008.94
2022-07-25 17:21:00,,0829.1,5.01,0.00,33.3,28.1,00.0,40.9,32.8,35.1,-000.4,0015.02,0009.94,0008.93
2022-07-25 17:22:00,,0829.1,5.00,0.00,33.5,28.3,00.0,40.9,32.9,35.3,-000.5,0015.03,0009.91,0008.93
2022-07-25 17:23:00,,0829.0,5.00,0.00,33.7,28.5,00.0,40.9,33.1,34.6,-000.1,0014.87,0009.84,0008.94
2022-07-25 17:24:00,,0828.8,5.00,0.00,33.8,28.5,00.0,40.9,33.1,33.4,-000.0,0014.73,0009.78,0008.91
2022-07-25 17:25:00,,0828.9,5.00,0.00,33.9,28.2,00.0,40.9,33.0,32.9,-000.0,0014.92,0009.74,0008.89
2022-07-25 17:26:00,,0828.9,4.99,0.00,33.9,27.7,00.0,40.9,32.9,33.6,-000.1,0015.30,0009.74,0008.93
2022-07-25 17:27:00,,0829.0,5.01,0.00,33.8,27.5,00.0,40.9,32.8,33.3,-000.2,0015.57,0009.78,0008.97
2022-07-25 17:28:00,,0829.1,5.01,0.00,33.6,27.6,00.0,41.0,32.7,33.3,-000.8,0015.44,0009.82,0009.00
2022-07-25 17:29:00,,0828.7,4.99,0.00,33.5,27.7,00.0,41.0,32.7,33.7,-000.7,0015.07,0009.83,0009.02
2022-07-25 17:30:00,,0828.5,5.00,0.00,33.3,27.9,00.0,41.0,32.7,33.9,-000.7,0015.04,0009.83,0009.02
2022-07-25 17:31:00,,0828.5,5.00,0.00,33.2,28.1,00.0,41.0,32.7,34.8,-000.1,0015.11,0009.78,0009.01
2022-07-25 17:32:00,,0828.5,5.00,0.00,33.2,28.2,00.0,41.0,32.7,34.8,-000.1,0015.00,0009.75,0008.99
2022-07-25 17:33:00,,0828.5,5.01,0.00,33.2,28.4,00.0,41.0,32.8,34.6,-000.1,0014.87,0009.72,0008.96
2022-07-25 17:34:00,,0828.4,4.99,0.00,33.1,28.6,00.0,41.0,32.8,34.7,-000.2,0015.34,0009.78,0009.00
2022-07-25 17:35:00,,0828.5,5.01,0.00,33.1,28.5,00.0,40.9,32.9,34.8,-000.1,0015.54,0009.88,0009.07
2022-07-25 17:36:00,,0828.4,4.98,0.00,33.1,28.0,00.0,40.9,32.8,35.6,-000.0,0015.55,0009.99,0009.15
2022-07-25 17:37:00,,0828.4,5.00,0.00,33.2,27.6,00.0,40.8,32.8,35.1,-000.4,0015.89,0010.14,0009.22
2022-07-25 17:38:00,,0828.4,5.01,0.00,33.3,27.5,00.0,40.8,32.8,34.3,-000.4,0016.25,0010.20,0009.26
2022-07-25 17:39:00,,0828.4,5.00,0.00,33.2,27.6,00.0,40.8,32.7,34.0,-000.1,0016.49,0010.16,0009.24
2022-07-25 17:40:00,,0828.4,4.99,0.00,33.2,27.8,00.0,40.8,32.7,33.5,-000.2,0016.53,0010.11,0009.20
2022-07-25 17:41:00,,0828.3,5.01,0.00,33.1,28.0,00.0,40.8,32.6,34.7,-000.2,0016.67,0010.06,0009.13
2022-07-25 17:42:00,,0828.4,5.00,0.00,33.1,28.1,00.0,40.8,32.7,35.0,-000.4,0016.09,0009.99,0009.07
2022-07-25 17:43:00,,0828.4,4.99,0.00,33.2,28.3,00.0,40.8,32.8,34.7,-000.4,0016.14,0009.93,0009.05
2022-07-25 17:44:00,,0828.4,4.99,0.00,33.3,28.5,00.0,40.8,32.9,34.4,-000.1,0016.56,0009.96,0009.05
2022-07-25 17:45:00,,0828.4,5.01,0.00,33.3,28.5,00.0,40.8,32.9,34.2,-000.1,0016.21,0009.93,0009.01
2022-07-25 17:46:00,,0828.4,5.01,0.00,33.2,28.0,00.0,40.8,32.8,34.3,-000.3,0016.30,0009.94,0008.98
2022-07-25 17:47:00,,0828.3,4.99,0.00,33.2,27.6,00.0,40.8,32.7,34.7,-000.2,0016.35,0009.89,0008.92
2022-07-25 17:48:00,,0828.4,5.00,0.00,33.1,27.5,00.0,40.7,32.6,34.4,-000.1,0015.56,0009.74,0008.82
2022-07-25 17:49:00,,0828.3,5.00,0.00,32.9,27.6,00.0,40.7,32.5,34.8,-000.3,0014.94,0009.64,0008.76
2022-07-25 17:50:00,,0828.4,5.01,0.00,32.9,27.7,00.0,40.7,32.5,34.5,-000.3,0014.84,0009.59,0008.72
2022-07-25 17:51:00,,0828.4,4.98,0.00,32.8,27.9,00.0,40.7,32.6,34.3,-000.2,0014.88,0009.56,0008.68
2022-07-25 17:52:00,,0828.4,5.01,0.00,32.7,28.1,00.0,40.7,32.6,33.8,-000.2,0014.58,0009.49,0008.62
2022-07-25 17:53:00,,0828.4,4.99,0.00,32.7,28.3,00.0,40.7,32.6,33.9,-000.2,0014.73,0009.43,0008.56
2022-07-25 17:54:00,,0828.4,5.01,0.00,32.6,28.4,00.0,40.7,32.6,34.3,-000.2,0014.59,0009.38,0008.50
2022-07-25 17:55:00,,0828.4,4.99,0.00,32.5,28.5,00.0,40.7,32.7,34.0,-000.5,0014.24,0009.35,0008.45
2022-07-25 17:56:00,,0828.4,4.99,0.00,32.5,28.1,00.0,40.6,32.6,34.4,-000.8,0014.17,0009.30,0008.40
2022-07-25 17:57:00,,0828.3,5.01,0.00,32.4,27.6,00.0,40.5,32.5,34.5,-001.0,0014.10,0009.18,0008.31
2022-07-25 17:58:00,,0828.4,5.01,0.00,32.3,27.4,00.0,40.5,32.4,35.0,-001.2,0013.93,0009.10,0008.24
2022-07-25 17:59:00,,0828.3,5.00,0.00,32.2,27.5,00.0,40.4,32.3,35.2,-001.1,0014.34,0009.07,0008.21
